Regional Weather Roundup
Issued by NWS Newport/Morehead, NC

Current Version | Previous Version | Text Only | Print | Product List | Glossary On
Versions: 1 2 3 4 5 6 7 8 9 10 11 12 13 14 15 16 17 18 19 20 21 22 23 24 25 26 27 28 29 30 31 32 33 34 35 36 37 38 39 40 41 42 43 44 45 46 47 48 49 50
000
ASUS42 KMHX 271422
RWRMHX
WEATHER ROUNDUP FOR EASTERN NORTH CAROLINA
NATIONAL WEATHER SERVICE NEWPORT/MOREHEAD CITY NC
900 AM EST THU NOV 27 2014

NOTE: "FAIR" INDICATES FEW OR NO CLOUDS BELOW 12,000 FEET
WITH NO SIGNIFICANT WEATHER AND/OR OBSTRUCTIONS TO VISIBILITY

NCZ015>017-031-032-045>047-102-103-271500-
NORTH COAST

CITY           SKY/WX    TMP DP  RH WIND       PRES   REMARKS
EDENTON        CLOUDY    44  40  87 S7        30.07R
ELIZABETH CITY CLOUDY    45  40  82 CALM      30.06F
KITTY HAWK     PTSUNNY   43  40  91 CALM      30.06F
MANTEO         PTSUNNY   44  39  82 S7        30.08S

$$

NCZ045>047-081-094-103-104-271500-
CENTRAL COAST

CITY           SKY/WX    TMP DP  RH WIND       PRES   REMARKS
FRISCO         MOSUNNY   48  43  82 CALM      30.07F
SWANQUARTER      N/A     48 N/A N/A E6        30.00F

$$

NCZ095-097-098-100-101-271500-
SOUTHERN COAST

CITY           SKY/WX    TMP DP  RH WIND       PRES   REMARKS
BEAUFORT       PTSUNNY   53  47  79 E6        30.04F
CEDAR ISLAND     N/A     50 N/A N/A E8        30.06F
JACKSONVILLE   CLOUDY    47  44  90 CALM      30.02F
PINEY ISLAND   MOSUNNY   50  43  77 E5        30.04F
WILMINGTON     MOSUNNY   49  39  68 SW13      30.05R


$$

NCZ011>013-027>030-043-044-078>080-089-090>093-098-271500-
COASTAL PLAIN

CITY           SKY/WX    TMP DP  RH WIND       PRES   REMARKS
AHOSKIE        DRIZZLE   39  38  94 CALM      30.05F
CLINTON        SUNNY     43  42  96 CALM      30.02F
ELIZABETHTOWN  SUNNY     47  39  75 SW9G18    30.03S
GOLDSBORO      CLOUDY    41  41  98 NE2       30.01S
GREENVILLE     MOSUNNY   43  37  81 E5        30.05F
HAVELOCK       CLOUDY    47  43  86 E3        30.05F
KENANSVILLE    SUNNY     44  42  93 SW5       30.02F
KINSTON        MOSUNNY   43  39  87 CALM      30.03F
NEW BERN       CLOUDY    48  43  82 E5        30.05F
RICHLANDS      PTSUNNY   46  39  76 SW13      30.02F
ROCKY MOUNT    CLOUDY    41  39  93 CALM      30.03S
WASHINGTON     MOSUNNY   44  39  83 E7        30.04F
WHITEVILLE     SUNNY     47  37  67 SW6       30.04S

$$

AMZ130-135-150-152-154-156-158-170-250-252-270-ANZ085-086-088-633-658-670-271500-
MARINE OBSERVATIONS

STATION/POSITION TIME  TEMP    WIND        PRES    WAVE   SWELL
                       AIR SEA DIR/SP/G            HT/PER HT/PER
                 (UTC) (F)     (DEG/KT/KT) (MB)    (FT/S) (FT/S)
CHESAPEAKE LIGHT 1400   44     230/  9/ 10 1018.6
64 E VA BEACH    1400   48 62  300/  8/ 12 1017.6    7/ 9   7/ 9
DUCK             1400   46 54   80/  1/  2 1017.1
2 E DUCK         1400      56                N/A     4/ 9   2/11
10 NE DUCK       1400      58                N/A     5/ 9   2/11
OREGON INLET     1400   47 56  110/  2/  4 1018.1
13E OREGON INLT  1400      61                N/A     7/ 9   2/11
HATTERAS CG      1400   49 59  120/  4/  7 1018.3
DIAMOND BUOY     1400   54      CALM  /  2 1018.3    5/ 9   5/ 9
17 S OCRACOKE    NOT AVBL
CAPE LOOKOUT     1400   56     220/  8/ 10 1016.9
BEAUFORT LAB     1400   55 56  200/  6/ 10 1016.1
30 SE NEW RIVER  1400   59 66  230/ 16/ 19 1017.2    4/ 9   3/ 9
5 SE WRIGHTSVLE  1400   51 59  270/ 25/ 27 1015.7
225 S CAPE HAT   1335   67 73  260/ 12/ 16 1020.0    8/ 8   7/ 8
41 SE CHARLESTON 1400   57 74  270/ 25/ 29 1019.1    7/ 6   2/12

$$


USA.gov is the U.S. government's official web portal to all federal, state and local government web resources and services.